Location: Caltech
(34.1382°N, 118.1253°W)
Time: 17:21:37
(UTC-07:00)

Cosmos 2360 Rocket - Visible Passes

Search period start: 24 April 2015 00:00
Search period end: 04 May 2015 00:00
Orbit: 833 x 846 km, 71.0° (Epoch: 24 April)

Date Brightness Start Highest point End Pass type
(mag) Time Alt. Az. Time Alt. Az. Time Alt. Az.
24 Apr 2.5 03:58:13 42° SSE 03:59:54 60° ESE 04:05:28 10° NNE visible
24 Apr 3.9 05:40:46 10° W 05:44:26 17° NW 05:47:54 10° NNW visible
25 Apr 2.6 03:43:19 49° SE 03:44:17 56° ESE 03:49:49 10° NNE visible
25 Apr 3.8 05:25:07 11° W 05:28:45 18° NW 05:32:26 10° NNW visible
26 Apr 2.6 03:28:22 51° ESE 03:28:40 52° ESE 03:34:09 10° NNE visible
26 Apr 3.7 05:10:09 14° W 05:13:05 19° NW 05:16:57 10° NNW visible
27 Apr 2.8 03:13:20 48° E 03:13:20 48° E 03:18:29 10° NNE visible
27 Apr 3.7 04:55:08 17° W 04:57:25 20° WNW 05:01:28 10° N visible
28 Apr 3.1 02:58:16 42° E 02:58:16 42° E 03:02:49 10° NE visible
28 Apr 3.6 04:40:03 19° W 04:41:44 22° WNW 04:45:57 10° N visible
29 Apr 3.4 02:43:09 36° ENE 02:43:09 36° ENE 02:47:09 10° NE visible
29 Apr 3.5 04:24:56 22° WNW 04:26:03 23° WNW 04:30:26 10° N visible
30 Apr 3.7 02:28:00 31° ENE 02:28:00 31° ENE 02:31:28 10° NE visible
30 Apr 3.4 04:09:46 24° WNW 04:10:23 25° WNW 04:14:55 10° N visible
01 May 3.9 02:12:48 27° ENE 02:12:48 27° ENE 02:15:46 10° NE visible
01 May 3.4 03:54:34 26° WNW 03:54:43 26° WNW 03:59:22 10° N visible
02 May 4.1 01:57:34 23° ENE 01:57:34 23° ENE 02:00:04 10° NE visible
02 May 3.4 03:39:20 28° NW 03:39:20 28° NW 03:43:51 10° N visible
03 May 4.3 01:42:18 20° ENE 01:42:18 20° ENE 01:44:22 10° NE visible
03 May 3.4 03:24:04 29° NW 03:24:04 29° NW 03:28:18 10° N visible
